This demonstration page uses our WeatherBlox Daily Observations layout. Learn more.

Left ArrowRight Arrow

39.92423, -83.80882

Hourly Observations for July 29, 2020

Temp ( °F °C ) Dew Point ( °F °C ) Humidity (%) Winds ( mph kmh ) Pressure ( in mb ) Visibility ( mi km ) Precip ( " mm )
12:56 am 00:56 Clear 65 18.3 65 18.3 100 100 N N/A 29.98 1015 10 16 N/A
1:56 am 01:56 Clear 64 17.8 64 17.8 100 100 N N/A 29.99 1016 10 16 N/A
2:56 am 02:56 Clear 62 16.7 62 16.7 100 100 N N/A 29.98 1015 10 16 N/A
3:56 am 03:56 Clear 62 16.7 62 16.7 100 100 N N/A 29.98 1015 10 16 N/A
4:56 am 04:56 Clear 62 16.7 62 16.7 100 100 N N/A 29.98 1015 10 16 N/A
5:56 am 05:56 Clear 62 16.7 62 16.7 100 100 N N/A 29.98 1015 10 16 N/A
6:56 am 06:56 Sunny 65 18.3 65 18.3 100 100 N N/A 30.00 1016 10 16 N/A
7:56 am 07:56 Sunny 68 20 67 19.4 96 96 N N/A 30.01 1016 10 16 N/A
8:56 am 08:56 Sunny 73 22.8 68 20 84 84 N N/A 30.01 1016 10 16 N/A
9:56 am 09:56 Sunny 77 25 67 19.4 71 71 SW 7 11 30.02 1017 10 16 N/A
10:56 am 10:56 Sunny 80 26.7 68 20 67 67 WSW 7 11 30.01 1016 10 16 N/A
11:56 am 11:56 Sunny 82 27.8 68 20 63 63 W 7 11 30.01 1016 10 16 N/A
12:56 pm 12:56 Sunny 83 28.3 66 18.9 57 57 WSW 7 11 30.00 1016 10 16 N/A
1:56 pm 13:56 Sunny 85 29.4 67 19.4 55 55 VRB 6 9 29.98 1015 10 16 N/A
2:56 pm 14:56 Sunny 85 29.4 67 19.4 55 55 SW 6 9 29.96 1015 10 16 N/A
3:56 pm 15:56 Sunny 86 30 66 18.9 51 51 N N/A 29.94 1014 10 16 N/A
4:56 pm 16:56 Sunny 86 30 67 19.4 53 53 SSW 6 9 29.92 1013 10 16 N/A
5:56 pm 17:56 Sunny 86 30 68 20 55 55 SSW 6 9 29.91 1013 10 16 N/A
6:56 pm 18:56 Sunny 85 29.4 69 20.6 59 59 W 7 11 29.91 1013 10 16 N/A
7:56 pm 19:56 Sunny 84 28.9 68 20 59 59 NNW 3 6 29.92 1013 10 16 N/A
8:56 pm 20:56 Clear 78 25.6 71 21.7 79 79 NW 3 6 29.93 1014 10 16 N/A
9:56 pm 21:56 Clear 75 23.9 69 20.6 82 82 N N/A 29.94 1014 10 16 N/A
10:56 pm 22:56 Clear 72 22.2 72 22.2 100 100 N N/A 29.95 1014 10 16 N/A
11:56 pm 23:56 Clear 71 21.7 71 21.7 100 100 N N/A 29.94 1014 10 16 N/A

Powered by AerisWeather